User: anonymous
Location: Unspecified
(0.0000°N, 0.0000°E)
Time: 00:40:27
(UTC+00:00)
Language:

Altair - Orbit

View from above orbital plane
View from above orbital plane
View from above satellite
View from above satellite

Ground track
Ground track

The orbit data is extracted from the following two-line orbital elements,

1 00050U 60009B   14109.47722478 -.00000135  00000-0 -45762-3 0   377
2 00050 047.2307 267.4106 0113955 097.5646 263.8104 12.20083662395851
Epoch (UTC): 19 April 2014 11:27:12
Eccentricity: 0.0113955
inclination: 47.2307°
perigee height: 1501 km
apogee height: 1683 km
right ascension of ascending node: 267.4106°
argument of perigee: 97.5646°
revolutions per day: 12.20083662
mean anomaly at epoch: 263.8104°
orbit number at epoch: 39585

The dashed part of the orbit path shows where the satellite is in the earth's shadow,  

DLR